ATLAS 5 CENTAUR DEB, 44039

Orbit data source: Space-Track

ATLAS 5 CENTAUR DEB, 44039 is space debris in HEO originally from a launch on Wed, 17 Sep 2014 UTC launched from the Air Force Eastern Test Range (AFETR). Debris objects in space refer to the collection of defunct objects orbiting the Earth. Examples of debris include non-operational satellites, rocket bodies, and fragments generated from explosions, collisions, or faulty payload assembly.

Loading next visibility...
Identifier
44039, 2014-055BZ
Orbit
HEO
Country
Flag of USUS
Related business
Flag of USUnited Launch Alliance/Lockheed Martin (US)
Manufacturer
Unknown
Mission
Spacecraft
Bus & Motor
Unknown
Mass
Unknown
Launch date (UTC)
2014-09-17 (11 years ago)
Launch vehicle
Unknown
Launch site
Air Force Eastern Test Range (AFETR)
Object type
Payload
Rocket body
Debris
Shape & HBR
Unknown shape, 1.1 m
Radar Cross Section
Small (<0.1 m²)

Expand to show TLE details & history
Last TLE update: 1 month ago

TLE from 1 month ago
0 ATLAS 5 CENTAUR DEB
1 44039U 14055BZ  25266.89803781 -.00000048  00000-0  00000-0 0  9993
2 44039  20.1274 153.3712 4882411 149.2763 251.6622  1.89435829 47431
Epoch: 2025-09-23T21:33Z
TLE epoch observation values (Epoch: 2025-09-23T21:33:10.466Z)
Latitude
0.00001°
Longitude
-172.88393°
Altitude
29,850.276 km
Speed
2.749 km/s
True Right ascension
10h 13m 33s
True Declination
0° 00' 00"
Sunlit
Object was in daylight at epoch
Visualization orbit readout
Latitude
Unknown
Longitude
Unknown
Altitude
Unknown
Speed
Unknown
Apparent Right ascension
Unknown
Apparent Declination
Unknown
Sunlit
N/A
Visualization observer readout
Local Sidereal Time
12:49:06
Azimuth
Unknown
Elevation
Unknown
Doppler factor
Unknown
Orbital elements
Apogee altitude
34,686.225 km
Perigee altitude
7,742.594 km
Semi-major axis
27,592.546 km
Eccentricity
0.48824
Inclination
20.1274°
RAAN
153.3712°
Arg. of periapsis
149.2763°
True anomaly
210.70446°
Mean anomaly
251.6622°
Eccentric anomaly
230.17723°
Mean motion
0.47354 °/min
Orbital period
760.23 mins
BSTAR
0
Loading maneuver chart data...
Computing Atmospheric mass density...

Documentation

Showing up to 5 results
|